Precipitable_Water
0.19 0.22 0.20 0.16 0.16 0.18 0.16 0.16 0.13 0.15 0.15 0.18 0.19 0.20 0.22 0.21 0.21 0.21 0.22 0.23 0.25 0.28 0.31 0.32 0.33 0.34 0.37 0.37 0.39 0.40 0.39 0.36 0.35 0.33 0.33 0.33 0.30 0.27 0.30 0.29 0.29 0.29 0.30 0.30
0.14 0.17 0.17 0.17 0.20 0.21 0.20 0.19 0.18 0.16 0.15 0.20 0.22 0.24 0.22 0.22 0.22 0.22 0.24 0.25 0.29 0.31 0.32 0.32 0.33 0.35 0.37 0.37 0.37 0.40 0.38 0.39 0.39 0.34 0.33 0.31 0.28 0.25 0.28 0.30 0.30 0.29 0.29 0.29
0.13 0.19 0.18 0.15 0.18 0.20 0.22 0.23 0.21 0.17 0.18 0.22 0.22 0.22 0.22 0.23 0.23 0.23 0.26 0.29 0.31 0.33 0.34 0.35 0.35 0.37 0.37 0.38 0.40 0.41 0.41 0.40 0.40 0.37 0.35 0.31 0.29 0.25 0.27 0.30 0.30 0.29 0.29 0.28
0.16 0.18 0.12 0.22 0.25 0.23 0.21 0.22 0.24 0.22 0.20 0.21 0.23 0.25 0.25 0.29 0.29 0.30 0.31 0.32 0.33 0.35 0.37 0.38 0.39 0.39 0.40 0.41 0.41 0.42 0.43 0.42 0.42 0.40 0.37 0.34 0.31 0.26 0.28 0.31 0.28 0.26 0.26 0.29
0.16 0.16 0.20 0.23 0.25 0.23 0.21 0.20 0.24 0.23 0.24 0.25 0.27 0.27 0.25 0.31 0.31 0.32 0.33 0.34 0.34 0.36 0.35 0.35 0.35 0.36 0.36 0.39 0.41 0.41 0.42 0.41 0.47 0.44 0.40 0.36 0.31 0.26 0.29 0.28 0.26 0.25 0.26 0.27
0.20 0.16 0.14 0.25 0.29 0.30 0.26 0.19 0.31 0.28 0.27 0.27 0.27 0.20 0.24 0.29 0.30 0.30 0.32 0.32 0.31 0.31 0.32 0.32 0.31 0.32 0.31 0.31 0.34 0.39 0.44 0.43 0.46 0.46 0.42 0.38 0.34 0.29 0.28 0.27 0.26 0.25 0.25 0.28
0.22 0.20 0.22 0.29 0.30 0.31 0.20 0.23 0.32 0.31 0.30 0.30 0.27 0.28 0.30 0.31 0.30 0.30 0.30 0.30 0.31 0.31 0.30 0.31 0.32 0.31 0.29 0.29 0.31 0.34 0.40 0.46 0.45 0.43 0.43 0.40 0.36 0.34 0.29 0.26 0.26 0.23 0.26 0.26
0.24 0.23 0.19 0.32 0.32 0.26 0.31 0.34 0.33 0.33 0.33 0.32 0.32 0.31 0.31 0.31 0.31 0.32 0.32 0.33 0.33 0.32 0.32 0.33 0.33 0.32 0.30 0.29 0.32 0.36 0.42 0.45 0.43 0.46 0.49 0.43 0.37 0.34 0.30 0.28 0.24 0.24 0.24 0.24
0.25 0.27 0.36 0.36 0.35 0.37 0.37 0.34 0.34 0.33 0.34 0.33 0.31 0.32 0.33 0.32 0.34 0.37 0.39 0.39 0.40 0.39 0.37 0.38 0.38 0.36 0.33 0.33 0.35 0.38 0.43 0.47 0.50 0.45 0.41 0.43 0.37 0.33 0.29 0.28 0.27 0.25 0.23 0.23
0.33 0.37 0.39 0.39 0.40 0.40 0.39 0.37 0.37 0.36 0.34 0.31 0.29 0.29 0.30 0.32 0.34 0.37 0.39 0.38 0.40 0.40 0.40 0.41 0.44 0.45 0.44 0.45 0.47 0.47 0.47 0.46 0.45 0.40 0.41 0.42 0.38 0.35 0.31 0.30 0.28 0.26 0.25 0.24
0.33 0.36 0.39 0.40 0.40 0.40 0.39 0.39 0.36 0.35 0.32 0.29 0.28 0.28 0.28 0.27 0.27 0.28 0.29 0.31 0.32 0.34 0.35 0.37 0.41 0.43 0.46 0.48 0.52 0.49 0.48 0.52 0.49 0.48 0.46 0.43 0.40 0.36 0.34 0.33 0.31 0.27 0.27 0.26
0.30 0.37 0.37 0.38 0.41 0.41 0.38 0.37 0.35 0.31 0.30 0.32 0.31 0.29 0.29 0.28 0.28 0.27 0.27 0.28 0.25 0.24 0.26 0.28 0.32 0.36 0.41 0.45 0.51 0.50 0.48 0.44 0.44 0.45 0.46 0.43 0.39 0.36 0.37 0.35 0.34 0.34 0.33 0.30
0.37 0.40 0.40 0.41 0.42 0.42 0.36 0.33 0.32 0.32 0.31 0.30 0.30 0.29 0.28 0.27 0.27 0.27 0.26 0.24 0.18 0.23 0.23 0.21 0.22 0.25 0.31 0.38 0.42 0.43 0.44 0.45 0.46 0.45 0.44 0.42 0.41 0.39 0.36 0.38 0.37 0.35 0.32 0.31
0.42 0.40 0.36 0.38 0.33 0.35 0.35 0.33 0.32 0.31 0.30 0.29 0.28 0.28 0.26 0.25 0.25 0.23 0.20 0.16 0.17 0.20 0.20 0.21 0.20 0.19 0.22 0.28 0.31 0.35 0.38 0.40 0.41 0.42 0.43 0.42 0.41 0.39 0.37 0.34 0.32 0.32 0.36 0.36
0.39 0.38 0.36 0.37 0.37 0.35 0.34 0.31 0.28 0.26 0.26 0.25 0.26 0.24 0.24 0.23 0.21 0.20 0.19 0.18 0.18 0.18 0.19 0.20 0.21 0.19 0.22 0.24 0.27 0.29 0.31 0.33 0.38 0.40 0.41 0.42 0.41 0.41 0.40 0.37 0.34 0.33 0.33 0.33
0.40 0.38 0.36 0.33 0.31 0.30 0.28 0.26 0.25 0.24 0.24 0.24 0.23 0.24 0.23 0.23 0.21 0.19 0.17 0.16 0.15 0.15 0.16 0.18 0.19 0.20 0.25 0.29 0.28 0.30 0.31 0.33 0.34 0.36 0.38 0.38 0.37 0.36 0.34 0.32 0.31 0.30 0.29 0.28
0.32 0.29 0.30 0.28 0.26 0.25 0.24 0.25 0.26 0.26 0.26 0.25 0.26 0.25 0.23 0.22 0.19 0.15 0.14 0.15 0.16 0.17 0.18 0.19 0.21 0.26 0.30 0.32 0.33 0.32 0.31 0.34 0.34 0.35 0.33 0.35 0.35 0.33 0.32 0.31 0.29 0.27 0.26 0.27
0.33 0.32 0.31 0.29 0.27 0.28 0.28 0.29 0.30 0.30 0.29 0.29 0.26 0.22 0.21 0.18 0.15 0.15 0.17 0.18 0.19 0.20 0.20 0.24 0.27 0.30 0.30 0.29 0.31 0.32 0.31 0.31 0.36 0.35 0.35 0.33 0.32 0.32 0.32 0.30 0.27 0.25 0.24 0.24
0.32 0.30 0.29 0.28 0.27 0.27 0.27 0.27 0.27 0.25 0.24 0.21 0.19 0.20 0.19 0.18 0.18 0.18 0.20 0.21 0.22 0.22 0.22 0.29 0.31 0.29 0.29 0.30 0.30 0.31 0.31 0.33 0.35 0.36 0.34 0.33 0.30 0.29 0.27 0.26 0.25 0.24 0.24 0.22
0.28 0.26 0.25 0.24 0.22 0.20 0.19 0.19 0.20 0.19 0.18 0.19 0.21 0.19 0.18 0.18 0.19 0.20 0.23 0.22 0.26 0.29 0.32 0.31 0.29 0.28 0.30 0.30 0.30 0.29 0.30 0.30 0.31 0.31 0.29 0.27 0.25 0.23 0.22 0.22 0.21 0.21 0.21 0.20
0.20 0.17 0.16 0.16 0.16 0.18 0.18 0.18 0.17 0.16 0.20 0.23 0.22 0.19 0.20 0.20 0.21 0.22 0.21 0.23 0.28 0.29 0.27 0.27 0.25 0.24 0.24 0.24 0.23 0.23 0.24 0.24 0.23 0.22 0.21 0.21 0.21 0.21 0.21 0.21 0.20 0.19 0.19 0.20
0.15 0.15 0.15 0.16 0.15 0.16 0.19 0.22 0.24 0.26 0.26 0.24 0.22 0.23 0.21 0.20 0.20 0.20 0.22 0.23 0.25 0.26 0.26 0.24 0.22 0.22 0.22 0.21 0.20 0.20 0.20 0.19 0.20 0.20 0.19 0.20 0.19 0.18 0.18 0.18 0.18 0.19 0.20 0.19
0.16 0.15 0.16 0.16 0.16 0.18 0.20 0.20 0.22 0.25 0.26 0.26 0.25 0.24 0.20 0.21 0.22 0.20 0.16 0.21 0.24 0.25 0.24 0.23 0.21 0.21 0.20 0.20 0.19 0.18 0.18 0.18 0.18 0.18 0.18 0.18 0.17 0.17 0.17 0.17 0.18 0.19 0.19 0.19
0.16 0.17 0.17 0.18 0.20 0.18 0.16 0.18 0.20 0.23 0.25 0.26 0.26 0.24 0.22 0.21 0.21 0.23 0.21 0.23 0.25 0.24 0.22 0.22 0.20 0.18 0.19 0.19 0.18 0.18 0.18 0.19 0.17 0.17 0.16 0.16 0.16 0.17 0.17 0.18 0.18 0.19 0.19 0.20
0.17 0.18 0.18 0.17 0.16 0.17 0.19 0.21 0.22 0.22 0.23 0.25 0.26 0.25 0.24 0.26 0.22 0.21 0.21 0.23 0.25 0.23 0.21 0.19 0.17 0.17 0.18 0.18 0.18 0.18 0.18 0.17 0.17 0.17 0.17 0.17 0.17 0.17 0.17 0.18 0.19 0.19 0.19 0.19
0.15 0.16 0.17 0.18 0.19 0.21 0.22 0.22 0.21 0.23 0.24 0.24 0.26 0.26 0.23 0.22 0.22 0.23 0.23 0.24 0.24 0.22 0.19 0.17 0.16 0.17 0.18 0.18 0.17 0.18 0.18 0.17 0.16 0.16 0.17 0.17 0.17 0.17 0.18 0.19 0.18 0.18 0.19 0.20
0.16 0.17 0.18 0.18 0.19 0.20 0.20 0.19 0.19 0.19 0.23 0.26 0.26 0.24 0.22 0.22 0.23 0.23 0.21 0.21 0.22 0.21 0.19 0.16 0.16 0.17 0.17 0.17 0.17 0.16 0.16 0.17 0.17 0.16 0.16 0.17 0.18 0.18 0.18 0.18 0.18 0.18 0.20 0.23
Wind_Speed
14 13 12 13 13 13 14 15 12 13 14 17 18 18 17 15 17 19 19 20 20 20 21 22 24 24 24 26 27 29 30 30 31 31 31 30 30 30 29 28 27 28 27 26
14 15 16 17 17 16 17 17 19 19 20 19 20 18 18 18 18 19 20 22 21 22 24 26 26 26 28 30 31 31 31 32 33 33 32 32 32 32 31 30 30 29 29 28
13 13 15 19 17 18 17 16 17 16 18 18 19 19 18 18 19 21 22 23 25 25 26 26 27 30 32 34 34 34 35 34 34 33 34 34 34 33 33 32 32 32 31 30
13 14 15 16 13 10 12 14 15 15 16 15 14 15 14 14 17 19 22 24 25 26 28 30 32 35 37 37 37 37 36 37 37 35 35 36 36 35 34 33 33 32 30 29
13 15 18 16 14 13 13 13 13 12 14 15 17 17 18 20 23 25 27 28 30 32 34 36 37 39 40 40 40 39 38 39 40 36 37 37 36 36 34 34 32 30 28 26
14 14 15 15 13 13 14 14 14 13 15 17 18 19 22 27 29 31 32 33 35 37 38 40 42 43 43 44 43 42 43 44 40 39 39 37 36 35 34 33 32 29 28 26
15 16 18 17 14 14 14 16 14 15 17 19 20 23 27 30 31 31 32 34 36 37 38 40 41 42 43 44 43 45 46 44 40 40 38 37 36 34 33 32 30 29 27 27
16 16 19 16 15 15 15 15 16 18 20 22 25 27 29 30 32 33 34 35 37 38 40 41 43 44 45 45 46 45 41 40 40 41 39 39 36 34 33 31 30 29 28 27
15 16 16 15 13 14 15 16 19 21 23 25 27 28 29 30 30 31 33 34 37 39 40 41 43 44 46 47 46 45 43 43 43 41 38 36 34 34 32 31 30 29 29 28
14 17 15 13 15 16 17 19 22 23 25 26 27 28 29 31 33 34 37 39 41 42 43 44 46 46 47 47 45 42 41 41 39 37 35 34 34 34 32 30 30 30 30 30
18 16 13 16 18 19 20 22 23 25 26 26 27 28 30 31 33 35 36 38 40 42 45 46 48 48 48 47 46 44 42 41 40 37 34 33 34 33 32 31 31 31 30 31
18 18 17 19 20 20 22 24 25 26 26 27 28 30 31 32 34 37 39 41 43 45 46 47 48 48 48 46 43 40 40 37 34 34 33 35 34 34 33 33 32 32 31 32
18 18 18 20 21 23 25 26 26 26 27 28 29 31 33 35 38 40 42 46 48 49 50 51 51 50 49 47 44 43 41 38 37 36 35 36 35 34 34 34 33 34 34 34
17 19 21 22 23 24 25 26 27 27 29 31 33 34 37 39 42 44 48 51 52 53 53 53 53 52 50 48 45 42 39 37 37 38 37 38 37 37 36 35 35 36 35 36
18 19 19 21 22 24 25 27 28 29 32 33 35 38 41 44 47 50 52 54 55 56 56 56 55 54 51 48 45 42 39 37 36 34 34 35 35 35 36 36 38 37 37 36
18 18 19 21 23 25 27 29 30 33 34 36 39 42 46 48 51 54 55 56 56 57 57 56 55 53 49 45 43 41 40 38 37 35 34 33 33 34 34 35 35 36 37 37
18 20 21 24 26 28 30 32 33 35 37 40 43 48 50 51 54 55 56 56 56 56 55 53 52 48 44 43 42 41 39 38 36 35 34 33 32 33 34 34 35 36 37 38
19 21 23 26 28 31 33 34 36 39 41 45 49 51 51 52 54 55 56 56 56 55 51 48 45 43 42 40 38 37 36 35 33 32 31 32 32 34 35 36 36 37 38 39
21 24 27 30 32 33 35 38 41 44 46 49 50 50 52 52 53 54 55 54 52 49 46 41 40 39 38 35 34 32 31 29 28 26 29 32 34 35 36 37 38 39 39 41
26 29 31 32 35 38 40 42 45 47 49 49 49 50 50 51 52 53 52 49 45 43 39 39 40 36 33 32 32 30 29 28 27 29 31 32 33 35 36 37 38 39 39 40
29 31 33 36 39 41 43 46 48 49 49 48 47 48 49 51 50 50 48 44 39 39 39 36 35 33 32 31 31 30 28 28 28 29 29 30 30 30 31 31 32 33 34 34
31 34 36 39 41 44 46 47 48 48 47 46 47 48 49 48 47 46 42 40 39 38 36 35 34 33 32 32 30 29 28 27 26 26 27 27 27 28 28 29 29 30 30 31
34 37 39 41 44 45 47 47 47 47 46 46 47 47 46 45 43 42 41 39 37 35 34 33 33 32 31 29 28 28 27 26 26 25 25 25 26 27 27 28 29 29 29 28
38 40 42 44 45 46 46 47 47 46 46 46 44 44 43 42 40 39 39 37 35 34 32 31 30 30 28 28 28 28 27 26 26 26 26 26 26 26 27 27 27 26 26 25
41 42 43 44 45 46 48 48 48 46 46 44 42 41 39 38 38 38 36 34 32 31 29 29 28 29 29 29 30 29 29 28 27 27 27 26 26 26 26 25 24 24 24 24
43 43 44 45 46 47 47 48 47 47 45 42 39 37 37 36 36 36 33 31 30 29 28 28 29 29 30 31 32 31 29 29 28 26 26 25 25 25 23 23 24 23 23 23
43 43 44 45 45 46 47 48 47 45 42 39 35 35 35 34 33 32 30 30 28 28 28 29 30 30 32 32 32 31 29 27 26 25 24 23 23 23 23 22 22 22 23 22
Wind_Direction
280 287 286 287 287 276 277 277 275 283 288 283 290 291 295 295 298 301 302 304 305 306 307 307 308 309 311 314 314 314 314 313 312 312 311 312 312 312 310 309 307 306 304 304
288 281 284 288 276 269 269 275 276 279 282 281 282 285 292 293 298 300 301 302 301 304 305 305 305 305 307 309 309 308 310 310 310 308 307 307 308 308 307 305 304 303 301 300
287 300 303 300 282 272 271 267 266 269 274 280 285 286 288 290 294 298 301 305 302 301 302 303 303 304 304 305 305 305 304 305 306 306 304 303 304 303 303 301 301 300 298 296
287 297 299 289 292 285 287 281 273 277 282 292 294 295 294 302 306 308 307 308 308 308 308 306 304 303 303 302 302 302 301 302 301 300 303 302 301 299 299 298 299 298 297 295
286 287 294 297 294 290 286 292 297 288 292 295 296 292 289 299 303 301 301 302 302 303 303 304 304 304 304 301 299 297 298 300 298 295 299 300 299 297 296 296 297 295 294 294
286 290 287 288 284 288 286 279 296 296 298 300 300 296 292 300 301 301 300 300 302 303 303 303 303 302 301 300 298 294 294 297 294 293 294 294 296 295 295 294 294 291 290 290
282 288 291 285 287 286 280 277 293 297 297 299 297 293 296 301 301 301 301 303 303 304 304 304 305 305 303 302 299 296 293 292 289 292 291 291 292 293 292 293 292 290 287 288
281 290 286 287 281 281 278 289 293 297 300 301 301 302 303 304 304 305 305 305 306 306 306 307 307 306 305 303 301 300 295 290 289 289 287 289 287 289 290 290 290 286 285 284
276 282 282 289 285 285 287 290 296 297 301 303 303 304 306 308 310 311 312 312 313 314 313 313 312 309 307 306 303 298 294 290 288 286 283 284 282 287 287 287 286 284 282 282
284 281 284 288 291 291 292 295 297 300 301 304 304 306 308 309 310 310 310 311 311 312 312 311 312 312 312 310 306 301 297 292 290 282 281 279 281 284 284 284 285 284 282 281
279 276 279 291 292 291 295 297 299 302 302 303 304 306 308 311 313 314 315 316 316 314 313 312 311 311 310 310 305 302 297 293 287 283 274 277 284 281 281 282 283 283 282 282
279 282 281 284 288 292 295 297 298 300 301 302 305 306 308 309 311 313 313 314 315 315 314 314 315 314 311 308 309 303 300 295 288 281 274 280 282 281 279 281 282 281 281 282
280 285 286 287 291 295 295 296 299 299 302 304 307 308 310 310 312 313 314 314 313 312 313 312 312 311 311 310 306 301 296 292 287 284 279 278 281 282 278 278 281 282 283 282
287 288 290 293 291 293 296 299 300 301 303 304 307 309 310 310 311 312 313 313 312 312 311 311 310 309 308 306 304 300 297 292 287 283 281 278 279 279 279 278 280 281 283 283
291 292 289 291 294 296 299 301 302 303 304 305 308 309 310 311 311 311 312 312 312 311 310 309 308 307 307 304 301 298 295 292 289 287 283 280 279 278 280 280 281 281 283 284
293 295 296 297 299 300 301 302 303 303 305 306 308 309 310 310 311 311 312 312 312 312 311 310 309 308 306 303 300 297 293 290 286 285 284 283 281 279 280 280 281 282 283 286
294 296 299 301 302 302 303 303 304 305 306 307 309 310 310 310 311 312 313 313 313 313 313 312 310 309 307 304 300 297 294 289 285 283 282 281 282 281 282 283 283 284 285 286
297 299 302 304 305 305 305 305 306 307 307 308 309 310 310 312 312 313 314 314 314 314 314 313 313 311 309 307 304 302 297 292 285 282 281 282 282 284 284 284 284 285 286 288
301 303 304 305 305 306 307 307 308 308 308 309 309 310 311 312 313 314 315 316 316 316 316 316 316 316 314 312 310 307 304 298 290 281 285 286 285 286 285 285 286 286 288 289
302 304 305 306 307 307 307 308 308 308 309 309 310 310 312 313 315 315 316 316 316 318 319 317 318 318 317 317 316 310 305 298 296 293 292 292 290 289 288 287 287 288 289 290
305 306 307 308 309 309 309 309 309 309 309 309 310 312 313 314 316 317 317 317 317 317 318 319 320 319 318 317 317 313 309 304 300 298 297 297 296 295 294 294 294 293 293 293
307 308 309 309 310 311 312 311 311 311 310 310 312 312 314 315 316 317 318 315 315 315 316 318 318 318 316 316 316 314 312 310 306 304 302 301 300 300 299 298 298 298 298 298
309 310 310 311 311 312 312 313 313 312 311 310 311 313 314 315 317 317 318 318 317 315 315 317 318 319 319 318 317 316 314 312 310 308 307 306 305 304 303 302 302 302 301 301
310 311 312 312 312 313 314 314 314 313 311 311 311 313 314 315 315 317 317 318 317 318 316 316 319 320 321 321 319 317 315 313 312 309 308 307 307 307 306 305 304 304 304 304
312 312 313 313 314 314 314 314 314 314 313 311 311 312 313 314 314 317 317 317 319 319 318 319 320 320 320 320 319 317 313 311 310 309 307 307 307 308 308 307 307 307 307 306
314 314 314 315 315 316 316 316 314 313 313 311 310 311 313 314 315 316 316 317 318 319 319 320 320 320 320 320 319 317 314 311 309 308 308 308 308 309 308 309 309 308 308 308
315 315 315 316 317 317 317 317 316 314 312 309 308 311 313 316 317 318 317 318 318 318 319 320 320 321 321 321 320 318 316 314 311 309 309 309 310 310 310 310 310 310 311 311